Time,TemperatureF,DewpointF,PressureIn,WindDirection,WindDirectionDegrees,WindSpeedMPH,WindSpeedGustMPH,Humidity,HourlyPrecipIn,Conditions,Clouds,dailyrainin,SoftwareType,DateUTC
2013-06-03 00:32:00,58.0,48.0,29.51,ESE,103,1.0,-999.0,70,-99.99,,,-99.99,,2013-06-03 07:32:00,
2013-06-03 00:42:00,58.0,48.0,29.51,ESE,103,1.0,-999.0,70,-99.99,,,-99.99,,2013-06-03 07:42:00,
2013-06-03 00:52:00,58.0,48.0,29.51,ESE,103,1.0,-999.0,70,-99.99,,,-99.99,,2013-06-03 07:52:00,
2013-06-03 01:02:00,58.0,48.0,29.51,ESE,103,1.0,-999.0,70,-99.99,,,-99.99,,2013-06-03 08:02:00,
2013-06-03 03:33:00,54.0,48.0,29.50,NE,45,3.0,-999.0,81,-99.99,,,-99.99,,2013-06-03 10:33:00,
2013-06-03 03:42:00,54.0,48.0,29.50,NE,45,3.0,-999.0,81,-99.99,,,-99.99,,2013-06-03 10:42:00,
2013-06-03 03:52:00,54.0,48.0,29.50,NE,45,3.0,-999.0,81,-99.99,,,-99.99,,2013-06-03 10:52:00,
2013-06-03 04:02:00,54.0,48.0,29.50,NE,45,3.0,-999.0,81,-99.99,,,-99.99,,2013-06-03 11:02:00,
2013-06-03 06:32:00,52.0,47.0,29.52,NE,55,0.0,-999.0,82,-99.99,,,-99.99,,2013-06-03 13:32:00,
2013-06-03 06:43:00,52.0,47.0,29.52,NE,55,0.0,-999.0,82,-99.99,,,-99.99,,2013-06-03 13:43:00,
2013-06-03 06:52:00,52.0,47.0,29.52,NE,55,0.0,-999.0,82,-99.99,,,-99.99,,2013-06-03 13:52:00,
2013-06-03 09:33:00,64.0,50.0,29.56,SW,231,0.0,-999.0,61,-99.99,,,-99.99,,2013-06-03 16:33:00,
2013-06-03 09:42:00,64.0,50.0,29.56,SW,231,0.0,-999.0,61,-99.99,,,-99.99,,2013-06-03 16:42:00,
2013-06-03 09:53:00,64.0,50.0,29.56,SW,231,0.0,-999.0,61,-99.99,,,-99.99,,2013-06-03 16:53:00,
2013-06-03 10:02:00,64.0,50.0,29.56,SW,231,0.0,-999.0,61,-99.99,,,-99.99,,2013-06-03 17:02:00,
2013-06-03 12:33:00,81.0,52.0,29.57,ESE,113,1.0,-999.0,37,-99.99,,,-99.99,,2013-06-03 19:33:00,
2013-06-03 12:42:00,81.0,52.0,29.57,ESE,113,1.0,-999.0,37,-99.99,,,-99.99,,2013-06-03 19:42:00,
2013-06-03 12:52:00,81.0,52.0,29.57,ESE,113,1.0,-999.0,37,-99.99,,,-99.99,,2013-06-03 19:52:00,
2013-06-03 13:02:00,81.0,52.0,29.57,ESE,113,1.0,-999.0,37,-99.99,,,-99.99,,2013-06-03 20:02:00,
2013-06-03 15:33:00,79.0,50.0,29.58,WSW,254,5.0,-999.0,37,-99.99,,,-99.99,,2013-06-03 22:33:00,
2013-06-03 15:42:00,79.0,50.0,29.58,WSW,254,5.0,-999.0,37,-99.99,,,-99.99,,2013-06-03 22:42:00,
2013-06-03 15:53:00,79.0,50.0,29.58,WSW,254,5.0,-999.0,37,-99.99,,,-99.99,,2013-06-03 22:53:00,
2013-06-03 16:02:00,79.0,50.0,29.58,WSW,254,5.0,-999.0,37,-99.99,,,-99.99,,2013-06-03 23:02:00,
2013-06-03 18:32:00,70.0,49.0,29.58,West,267,3.0,-999.0,48,-99.99,,,-99.99,,2013-06-04 01:32:00,
2013-06-03 18:42:00,70.0,49.0,29.58,West,267,3.0,-999.0,48,-99.99,,,-99.99,,2013-06-04 01:42:00,
2013-06-03 18:52:00,70.0,49.0,29.58,West,267,3.0,-999.0,48,-99.99,,,-99.99,,2013-06-04 01:52:00,
2013-06-03 19:02:00,70.0,49.0,29.58,West,267,3.0,-999.0,48,-99.99,,,-99.99,,2013-06-04 02:02:00,
2013-06-03 21:33:00,63.0,48.0,29.61,East,91,0.0,-999.0,58,-99.99,,,-99.99,,2013-06-04 04:33:00,
2013-06-03 21:42:00,63.0,48.0,29.61,East,91,0.0,-999.0,58,-99.99,,,-99.99,,2013-06-04 04:42:00,
2013-06-03 21:53:00,63.0,48.0,29.61,East,91,0.0,-999.0,58,-99.99,,,-99.99,,2013-06-04 04:53:00,
2013-06-03 22:02:00,63.0,48.0,29.61,East,91,0.0,-999.0,58,-99.99,,,-99.99,,2013-06-04 05:02:00,